Location: Hopville
(44.8032°N, 123.1329°W)
Time: 04:52:06
(UTC+00:00)

Cosmos 1943 Rocket - Pass Details

Date: 24 January 2021
Orbit: 810 x 845 km, 71.0° (Epoch: 26 February)

Event Time Altitude Azimuth Distance (km) Brightness Sun altitude
Exits shadow 14:14:13 - 337° (NNW) 3,012 4.7 -15.1°
Reaches altitude 10° 14:15:40 10° 339° (NNW) 2,469 4.3 -14.9°
Maximum altitude 14:21:18 65° 62° (ENE) 928 2.6 -13.9°
Drops below altitude 10° 14:26:56 10° 144° (SE) 2,461 5.4 -12.9°
Sets 14:29:23 0° 147° (SSE) 3,391 6.1 -12.5°
